Theta_e
342 342 342 344 346 347 347 348 348 348 348 348 349 349 349 349 351 353 353 351 349 349 350 351 348 345 343 343 343 342 341 339 335 332 331 331 330 330 331 333 336 337 335 332 333 337 338 339 340 341 343 344 343 342 339 336 337 339 344 348 349 350 349 346 344 338 326 320 320 321 324 325 323 322
341 341 342 344 346 347 347 348 348 348 348 348 348 349 349 349 350 351 351 352 350 347 349 350 349 346 344 344 344 343 342 339 335 334 334 332 330 330 330 332 335 335 334 333 334 336 337 337 339 340 342 345 346 346 343 340 338 337 340 345 348 349 349 347 345 342 332 322 320 320 322 326 325 323
342 342 342 344 346 347 348 350 350 349 349 349 349 349 350 350 350 349 349 352 350 346 346 347 347 347 346 345 344 342 340 337 335 334 332 330 328 328 328 330 332 332 332 332 332 332 332 333 334 336 339 343 346 348 347 344 340 338 338 341 345 348 349 347 345 343 337 325 320 320 321 324 327 325
343 342 343 344 346 348 349 350 351 350 350 350 349 349 349 349 350 349 349 350 348 345 346 345 345 346 345 343 342 340 336 333 332 331 329 327 326 326 326 327 328 329 328 329 329 328 327 327 328 330 333 336 340 344 346 345 343 339 338 339 342 346 348 348 345 343 340 330 321 320 320 322 326 327
344 344 343 344 346 349 350 349 350 352 352 352 351 350 350 349 350 349 349 349 347 344 344 343 343 344 343 341 339 336 332 331 330 329 329 328 328 328 327 326 326 326 326 326 326 326 325 325 325 326 329 330 333 336 340 342 342 340 338 337 339 344 347 347 345 343 342 335 324 320 320 320 324 327
345 345 344 345 346 347 348 348 350 352 353 353 353 352 349 348 348 349 348 348 348 346 344 342 342 342 339 338 337 334 333 333 332 332 332 332 332 330 328 327 327 326 326 325 325 325 324 324 325 327 330 331 333 334 336 338 340 339 338 337 338 342 345 345 344 342 341 338 329 321 321 320 321 326
345 345 345 345 345 345 345 346 347 349 350 350 351 350 348 346 346 347 347 347 348 346 343 341 341 340 337 336 337 336 335 335 335 335 335 334 333 332 330 327 327 327 327 326 326 325 325 326 328 330 333 335 336 337 337 338 338 337 337 336 337 340 343 343 343 341 340 340 334 325 321 321 320 322
344 345 345 345 346 345 344 345 345 346 347 347 347 347 346 345 345 346 347 348 348 347 344 340 339 338 337 336 337 337 336 336 336 336 335 334 333 332 329 327 326 325 326 327 327 327 328 329 331 333 335 336 337 339 339 338 337 336 336 336 336 340 343 342 341 340 338 339 339 332 323 321 321 320
341 342 343 344 344 345 345 346 345 345 345 344 344 344 343 343 345 345 346 347 347 347 345 340 338 338 338 337 337 337 336 336 335 335 334 333 332 330 328 326 326 326 325 327 327 328 329 330 332 333 334 335 337 339 339 338 337 336 335 335 336 339 343 341 339 339 338 338 340 339 329 322 321 320
340 340 340 341 341 342 342 343 344 344 344 344 343 343 343 344 345 345 345 345 344 343 342 341 339 340 339 337 336 337 337 337 337 336 334 331 330 330 327 326 325 325 325 326 327 328 329 329 331 332 332 334 337 339 340 340 339 337 336 336 337 340 343 342 338 338 339 337 339 341 337 328 322 321
342 341 341 341 341 340 340 340 340 341 341 342 342 342 343 343 344 344 343 342 342 341 341 342 342 342 341 338 338 337 336 337 337 337 335 331 329 328 327 326 325 325 326 326 327 328 328 329 330 331 332 334 337 339 340 341 341 340 338 337 338 341 343 342 340 338 339 339 338 340 341 336 328 322
344 344 344 344 344 343 343 342 342 342 342 343 343 343 344 344 344 344 343 342 342 342 342 343 343 343 341 338 337 335 334 335 336 336 337 335 333 330 326 324 325 325 326 326 327 329 330 331 331 333 334 335 337 338 339 340 341 341 340 338 340 342 342 342 342 340 339 341 340 339 341 341 337 329
346 346 346 345 345 344 343 342 342 342 343 343 342 342 343 344 345 345 344 343 342 342 342 343 342 342 340 337 335 333 332 333 335 337 340 340 340 338 332 325 324 327 329 329 328 329 332 333 334 335 337 338 338 337 338 339 340 341 340 339 340 342 342 341 342 342 341 341 342 341 341 341 341 338
347 347 347 346 346 345 344 342 341 340 340 341 341 340 341 342 342 343 342 342 342 342 341 340 340 340 338 335 334 333 332 335 339 342 343 344 343 343 339 331 326 327 333 336 332 330 333 336 337 337 339 340 340 338 338 339 340 340 340 340 339 341 341 340 340 342 343 342 343 343 342 341 342 342
348 348 347 347 347 346 346 345 344 343 342 341 342 341 340 341 342 342 342 341 341 341 341 340 339 339 337 334 333 334 336 340 343 344 344 344 344 345 344 341 335 332 336 341 339 334 334 338 339 339 341 343 342 340 339 339 340 340 339 339 339 339 340 340 339 341 343 343 343 344 344 343 342 342
348 348 348 347 347 347 347 347 347 346 345 344 344 343 343 343 343 344 345 344 342 342 343 342 340 339 339 337 336 338 341 343 344 344 344 344 344 345 346 346 345 341 342 345 344 340 338 340 343 344 345 345 344 342 340 339 340 340 339 338 338 337 338 338 338 339 342 343 343 344 345 345 344 343
347 347 347 347 347 347 347 347 347 347 347 346 345 344 344 344 344 345 345 345 344 344 343 343 342 341 340 341 341 342 343 343 343 344 344 344 345 346 346 347 347 345 345 348 347 344 342 344 347 347 347 346 343 342 341 340 340 340 338 337 336 335 335 335 336 338 340 342 343 344 345 345 345 345
346 346 346 345 346 346 346 346 347 347 347 346 345 345 345 345 345 344 344 344 344 344 343 343 342 341 341 341 342 342 343 343 343 344 344 345 346 346 347 348 349 347 346 348 349 347 345 346 349 348 348 347 345 343 342 341 340 340 339 337 336 334 332 332 333 336 338 341 342 343 344 345 346 346
346 345 345 345 345 345 346 346 346 347 346 347 346 346 345 345 345 345 346 346 346 345 345 344 344 343 343 343 343 343 344 344 344 344 345 346 347 347 349 350 349 348 346 347 349 350 347 347 349 349 349 349 348 345 343 341 340 340 339 338 336 334 333 332 332 334 336 338 340 341 343 344 345 346
346 346 346 345 345 345 345 346 346 347 347 347 347 346 345 345 345 346 346 347 347 346 346 346 346 346 345 345 345 345 346 347 346 347 346 347 347 349 351 351 350 350 350 350 351 351 349 348 351 351 350 350 349 347 345 344 343 341 340 340 338 336 334 333 334 335 336 337 337 339 340 341 343 344
347 347 347 346 346 346 346 345 346 346 347 347 347 346 346 346 346 347 347 347 347 345 345 345 346 346 347 347 347 347 348 349 348 348 348 348 349 351 353 353 353 352 351 351 352 352 351 351 352 352 351 351 350 349 347 346 345 344 343 342 341 339 337 336 335 335 335 336 337 337 338 339 340 341
347 347 347 347 347 347 347 346 347 347 347 347 347 347 347 347 347 347 347 347 347 345 345 345 345 346 347 348 349 349 350 351 350 350 349 349 350 352 354 354 354 353 352 352 353 353 352 352 353 353 353 352 351 351 349 347 346 346 345 344 343 342 340 338 337 337 336 336 336 337 338 339 340 340
349 349 349 348 348 348 348 347 347 347 348 348 349 349 349 348 349 349 348 347 347 347 346 346 346 346 347 348 349 350 350 351 351 350 350 350 351 353 354 354 355 354 354 353 353 353 353 353 353 354 354 354 353 352 350 349 348 346 346 346 346 345 344 342 340 339 339 338 338 338 339 340 341 340
349 349 349 349 348 348 348 349 349 349 349 349 349 349 349 349 349 349 348 348 348 348 348 348 348 348 348 348 349 349 350 350 350 350 351 351 352 353 354 355 355 355 354 354 353 354 354 354 354 354 354 354 354 353 352 352 351 349 347 346 347 348 347 347 344 342 340 341 341 342 342 343 343 342
348 347 347 348 347 347 347 347 346 346 345 345 345 345 346 346 347 347 347 347 348 349 349 350 350 350 350 350 349 350 350 350 351 351 351 351 352 353 354 354 355 355 354 354 353 354 354 354 354 354 354 355 355 355 354 353 352 351 351 349 347 349 350 350 350 348 344 342 341 342 344 345 345 345
343 342 340 339 338 337 337 335 335 334 334 333 333 334 335 337 340 343 345 346 347 348 349 349 350 350 350 350 350 350 351 351 352 353 353 353 353 353 353 354 354 354 353 353 353 354 354 355 355 354 354 354 354 354 353 353 352 353 353 352 350 349 350 350 351 352 350 347 343 342 343 344 346 346
336 334 331 329 328 325 323 322 321 320 320 319 318 318 319 322 325 329 333 337 342 345 348 349 350 350 351 351 351 351 351 351 352 352 352 352 353 353 353 352 352 352 352 352 352 353 353 354 354 353 353 353 353 353 352 352 353 354 354 354 353 352 352 352 351 351 351 351 349 346 344 343 345 346
333 333 332 332 331 328 326 325 324 323 323 323 320 317 315 314 315 317 318 322 326 330 335 339 342 345 347 348 350 351 351 351 351 351 351 351 351 351 351 351 351 350 351 351 351 350 352 353 354 353 353 353 353 353 352 352 353 354 354 354 354 354 354 353 352 351 351 352 352 351 349 347 345 346
336 336 335 336 336 335 335 335 335 335 335 333 331 325 318 313 313 314 314 315 315 317 320 322 325 328 332 335 339 342 344 346 347 347 347 347 347 347 347 348 349 349 349 350 351 351 351 353 354 353 353 353 354 354 353 353 353 354 354 354 354 354 354 354 353 352 352 352 352 351 351 351 349 348
336 337 337 337 338 339 339 340 340 340 340 338 336 329 319 312 311 313 314 314 314 314 314 316 319 321 322 324 326 328 331 334 337 339 341 341 341 341 341 340 339 340 342 346 351 352 352 353 353 354 354 354 353 353 353 352 352 353 354 354 354 354 354 355 355 354 352 352 352 351 350 350 350 349
338 338 339 339 339 339 339 338 336 334 331 328 325 320 314 310 311 312 313 313 313 313 314 316 321 325 326 328 330 332 333 336 338 340 341 342 342 342 341 339 337 336 338 342 347 350 352 353 353 354 353 354 354 354 353 352 352 352 353 353 354 354 354 355 355 354 353 352 352 351 350 349 349 348
331 330 329 328 327 327 325 323 320 317 315 314 312 312 311 312 312 313 313 313 314 316 319 323 327 331 332 334 337 338 339 340 341 342 342 342 343 343 344 344 343 342 342 344 345 347 348 350 351 352 353 353 353 354 353 353 352 352 351 352 353 354 354 354 355 355 355 354 351 351 351 350 349 348
315 313 312 312 311 311 310 310 310 310 310 309 309 310 311 312 314 314 313 313 314 316 320 327 332 333 334 335 337 339 340 341 341 342 342 342 342 343 344 345 345 345 345 345 345 346 346 348 349 350 351 352 352 352 352 352 352 351 350 350 352 354 354 355 356 356 356 354 351 351 350 350 350 349
307 307 307 307 307 307 307 308 308 308 308 308 309 309 309 311 312 312 313 316 318 321 325 330 333 334 334 336 337 338 339 340 341 341 342 342 342 342 343 344 344 344 344 345 346 346 346 346 347 348 349 350 351 351 350 350 350 349 348 349 352 354 355 355 356 357 356 354 353 352 351 351 352 350
306 306 306 306 306 307 307 307 307 308 308 308 309 309 310 312 313 315 319 323 326 329 332 333 333 334 334 334 336 337 337 338 339 339 340 341 341 341 342 343 343 343 343 344 346 347 347 347 347 347 348 349 349 350 350 350 350 349 349 351 353 355 355 355 356 356 356 355 354 353 352 352 352 351
306 306 306 306 306 306 307 308 309 309 310 312 314 314 316 319 320 322 325 328 329 331 332 332 332 333 333 333 333 334 335 336 336 336 337 338 338 338 339 340 341 341 341 342 344 346 348 348 347 347 348 348 349 349 350 350 349 349 349 351 353 354 354 354 355 355 355 355 355 355 355 354 353 351
306 306 306 306 306 306 307 308 311 313 314 318 321 322 324 324 325 327 329 330 331 331 330 329 329 330 330 330 331 331 331 332 332 332 333 334 335 335 336 337 338 338 339 340 341 342 344 346 347 348 349 349 349 350 350 349 349 350 350 351 353 354 354 354 354 354 355 354 353 354 354 354 353 352
307 307 307 307 307 307 307 309 312 316 319 321 324 326 327 325 325 329 331 331 331 331 328 327 328 328 328 328 328 328 328 328 328 327 328 328 329 330 332 333 334 335 337 339 339 340 340 341 343 345 347 349 350 350 350 350 350 352 352 352 353 353 353 353 354 354 354 354 353 354 354 354 354 353
308 308 308 308 308 308 308 309 311 315 320 323 325 327 327 325 326 331 333 332 331 330 327 325 326 326 325 325 325 325 325 325 325 325 325 324 323 322 321 321 323 326 330 334 337 338 339 340 339 340 341 344 345 347 349 350 351 352 352 352 352 353 352 353 353 354 354 353 353 354 355 354 354 354
309 309 309 309 309 308 309 309 309 311 316 320 324 326 326 325 326 329 331 331 330 330 328 326 325 324 323 323 323 323 322 322 323 323 323 322 321 319 317 315 314 315 318 321 324 327 330 332 332 331 331 333 336 340 346 350 350 350 351 351 351 352 352 352 353 353 354 354 354 354 355 355 354 354
310 309 309 309 309 310 310 310 310 310 311 314 318 321 323 325 327 328 328 328 328 328 328 327 326 325 324 322 321 321 321 320 320 320 320 319 319 317 316 316 314 314 314 315 314 315 315 317 318 319 320 323 326 332 340 347 350 350 349 349 351 352 352 352 353 353 354 355 354 354 354 354 354 355
310 310 310 310 310 312 313 314 314 313 311 312 313 314 316 320 323 325 326 326 326 327 327 326 325 325 324 322 321 321 321 321 320 319 319 318 318 317 316 316 315 315 316 316 315 312 312 312 312 312 313 315 319 325 332 340 346 349 349 348 349 351 352 352 352 353 354 354 354 354 354 354 354 354
310 310 310 310 311 312 314 315 316 315 313 312 313 314 315 317 319 319 321 323 324 324 324 324 323 323 323 323 323 323 323 323 322 322 321 321 320 319 318 317 317 316 316 316 315 313 313 312 312 313 314 313 314 320 326 331 336 342 347 348 348 349 350 351 351 352 353 353 352 352 352 352 352 353
312 311 311 311 312 312 313 315 316 315 315 315 315 316 317 319 318 318 319 321 322 322 322 322 322 322 322 323 323 323 322 322 322 322 322 322 321 320 319 318 317 316 316 316 315 315 315 314 314 318 321 319 316 319 324 327 328 332 338 343 346 346 347 348 349 350 352 352 352 351 350 350 350 350
312 312 312 312 312 313 313 314 315 315 316 317 317 317 317 318 318 318 319 319 320 321 321 320 321 321 321 321 321 321 321 321 321 321 321 321 320 320 319 318 318 317 316 316 315 315 315 315 315 318 322 322 320 320 322 326 329 328 329 334 340 343 344 345 347 349 350 351 351 350 349 348 348 349
Wind_Speed
6 7 6 7 8 8 8 7 7 7 7 8 8 9 9 10 10 10 10 10 9 7 7 8 10 11 11 11 12 12 14 15 16 15 14 14 15 15 15 14 14 14 13 12 13 15 16 16 16 17 17 18 19 21 20 20 19 20 19 18 19 20 21 22 23 22 21 21 21 18 15 13 9 8
7 7 7 7 8 8 8 8 9 9 9 9 10 9 9 9 10 10 10 10 9 9 9 8 10 12 12 11 11 12 13 14 14 14 14 14 15 15 15 14 14 14 14 14 14 15 15 16 17 17 17 18 18 20 21 20 19 19 19 19 18 19 19 20 21 21 20 19 19 18 15 13 10 7
7 7 8 8 8 8 8 8 9 10 10 10 10 10 10 10 10 10 10 10 11 11 11 10 10 12 12 11 11 12 12 13 13 13 13 14 14 15 15 15 15 15 15 15 15 15 15 16 17 17 17 17 18 19 20 20 20 19 18 19 19 18 18 18 19 20 19 18 18 17 15 13 10 7
7 7 7 8 8 9 8 8 9 10 11 11 11 11 11 10 10 11 11 12 13 12 11 11 12 13 13 12 12 12 11 11 12 12 12 13 14 15 15 15 15 16 16 16 16 17 17 18 18 18 18 18 18 18 19 20 20 20 18 18 18 18 18 17 17 18 18 16 16 16 15 13 10 7
7 7 7 7 8 9 9 9 9 9 10 10 10 10 10 10 10 11 12 13 15 15 13 13 14 13 13 12 11 11 10 11 11 11 12 13 14 15 16 16 16 17 18 18 18 18 19 19 20 20 20 19 19 19 19 19 20 20 18 16 17 17 17 16 15 16 17 15 14 14 14 12 10 7
7 7 7 7 8 9 9 9 9 9 9 9 9 9 10 10 10 10 12 13 15 17 16 16 15 14 12 11 11 11 11 11 11 11 11 12 14 15 16 16 17 17 18 19 19 20 20 20 19 19 20 20 19 19 18 18 19 19 18 16 15 15 16 16 14 15 15 14 13 13 13 12 10 7
8 8 8 7 7 8 9 9 10 10 10 10 9 9 9 10 10 10 11 12 14 16 17 16 15 13 11 10 10 10 11 11 12 12 13 14 15 16 16 16 16 17 17 18 19 19 19 18 18 19 19 19 19 18 18 18 18 18 17 16 15 14 14 15 13 13 14 13 12 12 12 11 10 8
8 8 8 7 7 8 9 9 10 11 11 11 11 11 10 11 11 11 12 13 14 16 17 16 14 12 11 10 11 11 12 13 13 14 15 16 16 16 16 17 18 17 17 17 17 18 18 17 18 19 19 19 19 18 18 18 17 17 16 16 15 13 13 14 12 11 12 12 11 11 11 10 9 8
9 9 9 8 8 9 9 10 10 11 11 11 11 11 11 11 11 12 13 14 15 16 17 16 13 12 11 12 12 13 15 16 16 17 18 18 17 17 17 17 19 19 18 18 18 18 17 18 18 19 20 20 19 18 18 17 17 16 16 16 15 12 11 13 12 10 11 11 10 10 10 9 9 8
10 10 9 9 9 10 10 11 11 11 11 12 11 11 11 11 11 12 13 14 15 15 15 15 14 14 14 15 15 15 16 17 18 20 20 19 18 19 19 18 19 20 20 20 19 18 18 19 20 20 20 20 19 18 18 17 17 16 15 15 14 12 11 11 11 9 9 10 9 9 9 9 8 7
11 11 10 10 9 10 10 10 11 11 11 11 12 11 11 12 12 13 14 14 15 15 15 15 15 16 17 17 18 18 18 19 20 21 22 21 21 21 22 21 20 20 20 20 20 20 20 20 21 21 21 21 18 17 17 18 17 16 16 15 14 12 10 10 10 8 8 8 8 8 9 8 8 7
11 11 11 10 10 10 9 9 9 10 10 11 11 11 11 12 12 13 13 14 14 14 15 16 17 18 19 20 20 20 20 21 21 22 23 23 24 24 24 22 22 23 22 21 21 22 23 23 23 24 23 21 18 16 16 17 18 17 16 15 14 12 11 10 9 8 7 8 8 8 8 8 8 7
10 10 10 11 10 10 10 10 10 11 11 12 13 13 12 12 13 13 14 14 15 15 17 18 19 20 21 22 22 22 22 22 21 21 21 23 25 27 27 24 23 24 25 24 23 23 25 26 25 25 24 22 19 16 16 17 17 16 16 15 14 14 12 10 9 8 7 7 7 7 7 7 7 7
10 10 10 10 11 11 11 11 12 12 12 13 13 14 14 14 14 15 15 15 16 16 18 20 20 22 22 22 22 22 21 20 20 20 22 24 26 28 30 27 23 23 26 28 27 25 26 27 27 25 24 23 21 18 16 16 16 15 15 15 14 14 14 12 10 9 8 7 7 7 7 7 7 7
11 11 10 11 11 11 11 11 11 12 12 13 13 13 13 14 14 15 16 16 16 17 18 20 20 21 22 21 20 20 19 19 20 21 23 25 27 28 31 31 27 24 27 30 31 29 27 27 27 26 25 23 21 18 15 14 15 15 15 14 14 14 15 14 12 10 9 7 7 7 7 7 7 7
13 12 12 12 12 12 11 11 12 12 12 13 13 13 13 13 13 14 15 16 17 17 19 20 21 21 22 22 19 17 18 19 21 23 24 26 28 29 31 33 31 28 29 31 32 31 29 27 27 27 25 23 20 17 15 14 14 15 15 15 14 13 14 14 14 12 10 9 8 8 8 7 7 7
14 14 14 14 14 14 13 13 13 14 14 14 14 15 15 15 14 15 16 17 18 19 20 22 22 21 21 22 21 18 19 22 24 25 26 27 29 31 31 33 33 30 29 30 32 32 30 27 27 27 25 23 21 18 15 14 15 15 16 16 15 13 12 14 14 13 12 10 10 9 9 9 9 8
15 15 15 16 16 16 16 16 16 16 16 16 16 16 16 16 16 17 18 19 20 21 22 24 25 24 23 24 24 22 23 25 26 27 29 29 30 32 32 32 32 30 28 28 30 31 31 28 27 27 26 24 22 19 18 17 16 17 17 17 16 13 12 12 13 13 13 12 12 11 11 11 11 11
16 16 16 17 17 17 18 18 18 18 17 16 16 17 18 19 20 20 20 21 22 23 25 26 27 27 26 26 27 26 27 28 29 29 30 31 32 33 33 32 31 29 28 28 29 30 30 28 27 27 26 25 24 22 20 18 17 17 18 18 17 14 12 12 13 14 14 14 14 13 13 13 13 12
18 18 18 18 18 18 19 19 19 19 19 19 19 21 22 23 24 24 24 23 22 23 25 27 28 29 29 29 29 29 29 30 30 30 31 32 32 32 31 30 30 28 26 28 29 30 30 28 26 27 28 28 28 25 21 19 18 17 17 17 16 15 14 13 13 14 15 15 16 15 14 14 14 14
20 20 20 20 20 20 20 21 21 21 22 23 24 25 26 27 27 27 26 25 24 24 24 25 26 28 29 29 29 28 28 28 29 30 31 31 29 28 27 27 26 26 26 27 26 26 27 27 27 29 30 31 31 29 25 21 17 16 16 16 16 16 16 15 15 15 16 17 17 16 16 16 16 16
20 20 21 21 22 22 23 24 24 24 25 26 28 28 28 28 29 28 27 26 26 26 26 26 27 27 27 26 26 26 25 25 27 28 29 28 26 25 25 25 24 25 26 25 23 23 26 28 27 27 27 29 31 31 29 27 22 19 17 17 17 17 18 18 18 18 18 18 18 18 17 17 18 18
19 20 21 22 23 24 26 27 27 27 27 28 28 29 28 28 27 26 26 26 27 27 27 27 27 27 27 26 26 25 24 24 25 27 27 26 24 24 24 22 21 23 24 24 24 25 27 28 25 22 22 25 29 31 33 33 31 27 23 20 19 19 19 20 21 21 20 20 19 19 19 19 19 19
18 19 20 22 24 24 25 26 26 26 26 26 26 26 26 26 26 25 26 27 27 27 28 27 27 26 27 27 27 26 25 24 24 25 25 25 24 24 23 20 19 21 23 24 27 28 28 27 24 20 19 22 25 28 29 29 29 30 29 26 22 20 20 21 22 23 24 23 22 21 21 20 20 20
16 16 17 19 20 20 20 20 20 20 20 20 20 21 22 23 24 25 25 26 26 27 27 27 27 26 26 25 25 26 26 26 26 26 25 24 24 24 23 21 21 23 25 25 27 30 30 28 24 20 19 20 21 25 27 29 31 32 30 29 27 23 22 22 22 22 24 25 26 25 24 24 23 22
12 12 13 13 13 13 14 15 15 15 15 16 16 18 19 20 21 23 24 24 25 26 27 27 27 27 26 25 24 24 25 25 25 23 22 22 22 23 24 24 26 29 29 28 29 31 31 29 25 22 21 21 22 25 28 31 33 29 25 26 29 27 23 21 21 21 22 24 27 28 27 27 26 25
10 10 10 11 11 11 11 11 12 12 13 14 15 17 18 19 20 21 22 23 23 25 26 27 27 27 27 26 25 24 24 24 23 22 23 24 24 25 27 28 30 32 32 31 30 29 30 29 26 24 23 23 23 25 28 29 27 22 19 21 24 24 21 19 19 20 20 22 25 28 30 30 29 28
10 11 12 13 13 13 13 13 14 14 15 16 17 19 19 20 20 20 21 22 23 23 24 25 26 27 27 27 26 26 26 25 25 26 27 27 26 27 29 31 32 33 33 32 30 28 28 28 26 24 23 21 20 22 26 28 24 18 17 18 17 17 18 18 19 21 21 22 23 26 29 32 32 31
14 16 17 16 16 16 17 17 18 19 19 20 21 22 22 22 21 21 21 22 23 24 24 25 26 26 26 26 26 27 27 28 28 29 28 28 27 27 29 30 31 31 30 28 26 25 25 26 25 23 20 19 18 19 22 25 24 20 19 21 21 19 19 20 20 22 23 23 24 24 25 28 31 32
18 19 20 20 20 20 21 21 22 23 23 23 24 25 24 23 23 23 23 22 23 24 25 25 25 24 24 24 25 25 25 25 25 25 25 25 24 24 26 29 31 31 28 24 20 19 20 21 22 22 21 20 20 20 20 23 26 24 22 23 24 23 20 18 18 22 24 23 22 22 22 23 27 30
23 23 23 24 24 25 25 25 25 26 26 26 26 25 25 24 23 23 23 23 23 24 24 24 22 21 20 21 20 20 19 18 17 17 18 19 19 18 20 24 27 28 26 23 20 18 18 19 20 21 23 23 23 22 22 23 24 24 22 22 23 22 20 18 19 22 24 22 20 20 21 20 22 25
24 25 25 25 25 25 26 26 26 26 26 26 25 24 23 23 22 23 23 23 23 22 21 20 18 17 17 17 16 16 16 15 15 15 16 17 18 18 18 19 21 21 20 20 19 19 20 21 20 20 22 24 24 24 24 25 25 25 24 23 21 19 19 19 19 19 19 20 20 20 20 20 20 21
23 23 23 23 23 23 23 23 23 23 24 25 25 24 24 23 22 23 23 22 21 21 19 17 15 15 16 15 15 15 15 15 15 16 16 17 18 19 19 20 20 21 21 21 20 20 20 20 21 21 22 24 25 25 26 27 27 26 25 24 22 21 20 19 17 15 17 20 21 20 21 22 21 20
21 21 22 22 22 23 23 23 24 23 23 23 23 24 25 24 23 24 22 19 18 18 17 15 15 16 17 16 15 16 17 18 17 17 17 18 17 17 18 19 20 21 23 23 22 21 22 21 22 23 24 25 25 25 25 26 27 26 25 24 22 21 20 18 16 16 18 19 19 21 22 21 19 19
21 21 22 22 22 22 22 23 23 23 23 23 23 23 23 22 22 21 18 15 14 13 13 15 17 18 18 18 18 19 20 21 21 21 21 21 21 19 19 21 22 22 23 24 22 21 21 21 21 23 25 25 25 25 23 23 23 24 23 21 20 19 19 18 17 18 18 18 18 21 22 21 20 21
20 20 21 21 22 22 22 22 22 22 22 21 20 19 18 18 18 17 14 14 14 12 13 18 20 19 20 21 22 22 23 24 24 25 25 25 26 26 24 23 24 25 25 25 24 22 21 21 21 22 24 24 26 26 25 24 24 24 23 21 21 20 20 19 19 19 19 19 18 18 19 20 22 23
18 19 19 20 20 21 21 21 21 21 21 18 16 15 15 15 16 15 14 15 14 12 15 19 20 21 23 24 24 25 26 27 27 28 29 29 29 29 28 27 28 29 29 29 27 26 24 24 23 22 23 25 27 29 28 27 26 24 23 22 21 20 20 20 21 21 21 21 21 19 19 20 21 20
17 17 18 19 20 20 21 21 21 20 20 19 17 15 16 16 15 14 15 16 15 15 19 22 22 23 24 25 27 28 28 29 30 31 31 32 32 33 33 33 34 36 35 33 32 30 29 28 26 24 25 27 28 29 29 30 29 26 23 23 24 25 25 24 23 22 22 22 22 21 21 23 24 22
17 17 18 18 19 20 21 21 21 21 21 20 18 17 18 18 15 14 14 16 17 20 24 26 26 27 28 28 29 31 31 32 33 33 33 34 33 34 35 36 37 39 39 38 38 36 35 34 32 29 28 28 29 31 32 33 33 30 27 27 28 29 29 28 25 24 24 24 23 22 23 25 25 24
17 18 18 19 19 20 21 22 22 22 22 21 20 19 19 19 18 17 17 18 21 23 25 26 27 28 29 30 31 32 33 34 35 35 35 35 35 36 36 37 38 39 39 40 41 40 39 38 37 35 33 31 31 32 33 34 35 34 33 32 30 29 30 30 28 27 26 24 24 24 24 24 23 22
16 17 18 19 20 20 20 21 21 22 23 23 22 22 21 20 19 21 23 24 25 25 25 25 25 24 26 30 33 34 34 35 35 35 34 35 35 36 37 37 38 38 38 39 41 42 42 41 40 39 38 35 33 32 33 34 36 35 34 33 30 27 27 28 28 27 26 23 22 24 25 24 22 21
15 16 17 18 18 18 18 18 19 21 23 23 23 24 24 23 24 26 26 26 26 25 24 23 22 21 22 25 29 31 32 33 34 34 33 33 33 35 35 36 37 38 37 38 41 43 44 44 42 41 39 36 33 31 32 35 37 37 35 33 30 27 27 27 27 27 26 24 23 24 24 22 21 21
12 13 15 17 18 19 19 19 19 21 23 24 24 23 22 23 24 26 25 25 26 27 25 23 22 22 22 23 26 28 29 30 30 32 33 33 33 34 35 36 37 38 39 40 42 43 44 44 43 41 39 37 34 31 31 34 37 39 38 36 32 28 27 27 27 26 27 27 26 26 26 24 24 24
10 11 13 15 17 19 19 19 20 20 22 23 22 21 20 22 23 23 24 25 26 27 26 24 24 25 25 24 24 25 27 29 31 33 34 36 36 37 38 38 38 39 40 41 42 43 43 43 41 37 35 35 33 31 31 33 36 39 40 40 37 33 30 28 27 26 27 27 27 26 26 25 26 27
11 12 13 14 15 17 17 18 19 20 21 21 21 20 21 23 23 22 23 24 24 25 25 25 24 25 26 27 26 27 30 34 36 36 36 38 38 39 40 41 41 41 41 41 42 42 42 43 41 37 34 34 33 32 31 31 33 37 40 40 39 37 33 30 27 26 27 28 27 25 25 25 24 25
Wind_Direction
253 257 255 245 247 256 261 267 275 283 293 302 311 320 326 332 337 338 335 337 339 339 341 334 327 331 336 336 337 338 339 337 339 345 352 354 352 351 351 348 346 345 345 345 344 345 346 348 349 350 351 351 352 355 356 356 355 354 352 353 356 2 5 6 9 15 17 13 14 19 27 39 63 102
251 254 252 246 248 257 264 270 275 282 289 294 300 306 312 319 327 331 328 327 329 334 339 336 329 332 339 341 339 341 341 337 339 346 351 351 348 347 347 344 340 338 336 335 336 339 341 342 342 342 343 343 343 346 350 353 353 350 348 347 349 355 0 3 5 11 16 14 13 16 22 31 50 87
254 255 253 252 253 258 263 269 277 285 289 293 296 300 303 307 313 319 320 317 317 324 333 335 332 333 336 340 340 342 342 337 338 344 345 344 342 341 342 340 335 333 332 333 334 336 337 336 335 334 334 335 336 337 339 345 349 348 344 342 342 347 354 359 1 6 13 15 12 14 18 25 39 67
256 257 259 259 259 260 260 264 275 286 292 295 298 299 301 302 305 308 308 305 307 315 323 325 329 332 333 338 342 342 344 341 341 345 344 342 341 340 339 337 332 330 329 330 330 331 333 333 331 330 329 329 330 331 331 334 340 342 340 337 337 341 347 353 357 0 9 16 14 12 15 19 29 49
251 255 260 260 260 260 261 265 273 282 289 295 300 302 300 300 301 301 299 299 303 308 313 315 322 329 331 338 343 344 346 346 344 346 346 345 344 341 338 335 331 326 324 323 324 325 327 329 329 328 327 328 328 327 327 327 331 334 333 331 331 335 342 347 353 357 3 13 16 13 13 15 19 32
252 257 261 261 261 263 265 269 272 276 280 285 292 296 297 298 299 297 296 297 300 304 308 313 320 327 331 338 344 345 346 345 344 346 345 344 343 339 337 337 335 329 324 321 320 320 322 324 326 327 327 329 330 329 327 325 325 326 325 325 326 330 338 342 347 353 359 9 17 16 15 14 14 18
256 260 262 262 265 266 267 270 272 273 275 278 280 282 285 288 289 292 295 296 298 302 305 312 320 325 329 335 340 340 340 340 341 342 340 338 338 336 335 336 336 334 330 327 323 322 324 326 327 327 328 330 332 332 329 325 323 321 320 320 321 325 334 340 343 348 354 4 16 20 18 15 14 12
259 261 263 265 267 269 271 275 277 278 281 283 283 282 284 285 284 286 289 291 294 297 301 307 315 320 321 325 329 331 330 330 333 336 335 334 334 333 332 333 333 331 329 329 328 326 326 327 326 327 329 331 332 332 331 328 325 321 319 319 319 321 329 337 339 343 350 359 11 21 23 19 16 13
261 261 264 267 270 273 276 280 283 285 288 289 289 290 292 292 288 287 286 288 291 293 297 302 306 310 312 313 319 325 326 326 328 330 330 330 330 328 326 328 330 329 327 327 326 325 323 322 322 323 325 328 330 330 330 329 326 322 319 319 319 317 324 333 335 339 347 356 5 17 24 25 21 17
262 263 264 266 269 272 276 279 282 285 288 289 291 292 293 293 291 289 288 288 290 291 294 297 300 303 307 310 314 319 322 324 325 327 326 324 325 325 322 321 324 326 326 324 321 319 318 317 317 318 322 325 326 326 326 326 324 321 319 319 318 314 319 328 331 334 345 354 3 13 22 27 25 21
262 263 264 265 267 269 272 276 280 283 285 286 287 289 290 290 291 292 293 291 291 291 291 294 297 300 304 308 311 314 317 319 322 326 327 325 322 322 321 319 320 321 320 319 317 315 314 313 314 315 318 323 324 322 322 322 321 320 318 316 314 310 314 323 327 330 342 354 2 9 17 24 26 25
263 264 265 266 268 270 272 274 277 280 283 286 287 288 290 291 291 293 294 293 290 289 289 291 294 297 301 305 308 311 313 317 322 327 328 325 322 320 317 317 318 318 317 316 316 315 315 316 317 317 319 322 323 319 317 317 318 319 316 312 308 306 307 314 320 324 335 349 358 3 10 17 22 25
265 266 268 269 270 271 271 270 270 272 276 280 283 285 285 288 290 291 293 292 290 289 288 290 293 296 300 304 308 310 313 318 323 326 325 324 323 320 316 314 316 317 316 316 314 314 316 317 319 320 321 324 324 319 315 314 316 318 317 310 303 300 301 303 307 313 323 337 350 355 360 5 12 20
266 268 272 274 273 272 270 270 269 269 271 273 276 280 282 285 287 288 289 290 290 289 289 289 292 295 297 300 305 308 313 320 323 323 323 322 322 320 316 314 315 315 316 316 314 314 317 319 320 322 324 325 325 321 316 313 314 317 318 312 302 295 295 295 296 299 306 319 334 345 351 355 360 9
265 268 271 274 275 275 275 277 277 274 274 274 274 275 277 279 282 285 287 288 288 289 289 289 291 293 294 298 302 306 312 316 316 316 317 318 318 317 316 316 316 315 316 317 315 314 318 321 321 322 323 324 323 321 316 311 310 313 316 314 306 295 290 290 290 290 293 303 314 326 337 344 348 354
264 266 268 272 274 276 277 278 280 279 277 275 274 272 272 274 278 284 288 290 290 291 291 291 291 292 295 298 300 302 305 306 306 308 310 311 312 313 314 314 314 315 317 318 316 315 318 321 321 322 324 324 321 316 311 305 303 306 311 314 310 300 290 286 285 284 284 290 299 307 318 327 335 341
265 266 267 269 271 274 276 277 280 280 277 274 273 273 273 274 278 283 286 288 290 291 291 291 291 292 294 294 295 296 297 297 299 301 302 304 306 308 310 312 312 314 318 318 316 315 317 320 320 321 323 322 319 314 307 300 296 298 304 309 309 304 293 284 281 278 277 282 289 296 303 311 318 325
266 267 269 269 270 273 276 278 279 278 276 276 275 276 278 280 283 285 285 287 287 286 285 285 286 288 288 288 289 291 292 292 294 296 297 299 301 303 307 309 310 313 316 316 314 314 315 319 319 319 321 321 320 317 309 301 296 295 298 303 305 302 294 284 278 273 272 276 282 288 294 300 306 312
264 267 269 271 272 275 277 278 278 277 275 274 275 279 284 289 291 293 293 293 290 287 285 284 284 285 285 285 287 290 291 291 291 292 294 295 298 302 306 308 310 314 315 314 313 313 313 317 318 317 318 319 319 318 315 307 299 294 294 296 298 296 288 282 277 273 272 273 276 280 286 291 296 299
266 269 271 273 274 275 275 275 277 278 278 278 280 285 290 294 296 298 299 298 293 288 285 284 284 284 283 283 284 286 288 288 289 290 291 293 298 304 306 308 311 314 313 310 311 312 312 315 316 314 314 316 315 315 315 311 304 298 293 290 290 287 280 274 271 270 269 270 272 274 278 283 287 290
268 272 274 275 276 276 275 275 276 277 278 280 283 287 291 294 297 299 300 298 295 291 289 288 288 287 285 285 285 285 286 286 286 286 287 291 299 302 302 304 306 308 307 305 306 310 312 314 314 312 311 312 313 314 315 312 307 301 293 287 282 279 275 271 267 266 266 267 268 269 273 278 281 282
268 271 274 276 278 279 279 279 278 277 278 280 282 285 289 291 293 295 296 294 293 293 293 293 293 292 290 289 287 286 286 286 284 282 284 289 295 296 297 300 300 302 305 303 303 309 312 312 312 310 309 309 310 312 312 311 309 303 297 292 286 279 275 272 269 267 266 266 266 267 271 275 277 278
267 269 272 273 275 277 279 279 279 278 279 280 282 285 287 288 290 292 291 291 292 292 293 293 293 292 292 291 290 289 287 286 284 284 285 287 289 290 293 296 295 297 300 298 300 307 310 309 308 308 307 307 307 308 308 308 308 306 302 298 293 287 281 275 272 270 268 267 266 266 268 271 273 274
268 269 270 271 272 274 276 277 278 279 280 282 284 286 287 287 288 289 289 290 290 290 290 291 291 291 291 291 292 292 292 290 287 286 286 285 284 284 287 290 288 288 290 293 299 303 304 304 303 301 300 298 299 303 305 304 305 307 306 304 300 295 290 284 276 271 268 265 264 264 266 268 270 271
268 268 269 271 273 275 276 278 280 282 284 286 288 289 289 289 290 290 290 290 290 288 289 289 289 289 290 291 292 292 292 292 292 291 290 287 283 281 281 283 282 282 285 290 295 298 299 299 297 296 295 292 291 296 299 299 302 305 305 304 304 302 298 293 285 277 270 265 263 263 264 265 267 267
270 269 269 272 276 277 278 279 281 283 285 287 287 288 289 290 290 291 292 293 292 290 290 288 287 287 288 289 291 292 291 291 291 290 288 285 283 280 280 280 281 282 284 286 289 291 293 294 292 292 293 292 292 294 295 297 301 303 301 302 305 306 302 295 290 285 276 268 264 261 262 262 262 263
274 273 271 273 277 280 282 284 284 285 288 292 294 295 294 294 294 295 296 297 296 295 294 292 292 291 291 291 293 294 293 292 289 286 285 283 283 283 283 284 285 286 286 286 286 288 290 291 290 291 292 292 292 293 293 295 297 298 296 298 303 305 304 301 299 295 287 277 267 260 258 257 256 258
278 279 279 279 278 280 283 286 288 291 296 301 304 305 303 300 299 299 299 300 300 300 300 299 298 298 297 296 295 294 294 293 292 292 291 289 288 288 289 290 290 290 290 289 288 288 288 288 289 290 291 288 284 286 291 293 294 294 293 293 294 294 294 298 301 299 295 289 279 267 259 255 253 253
279 280 282 282 280 278 280 283 286 289 293 295 297 301 304 302 300 299 299 300 301 302 303 302 302 302 301 298 297 296 295 295 296 296 296 295 295 295 295 294 293 293 293 292 291 289 286 283 286 289 287 281 278 280 285 290 292 291 290 290 290 288 288 292 298 299 298 295 290 281 269 261 256 253
279 278 280 282 284 285 285 286 287 288 290 292 293 296 299 299 297 297 297 298 299 300 302 302 302 301 300 299 299 299 299 298 298 298 298 300 301 301 300 297 296 295 295 293 290 288 285 283 284 285 281 277 278 280 283 287 290 290 288 287 288 289 289 290 293 297 301 300 294 288 280 271 264 259
281 281 281 282 284 285 286 287 288 289 290 291 292 294 295 295 293 293 294 295 296 297 298 299 299 300 301 302 303 303 303 302 302 303 305 305 305 305 303 300 298 298 298 297 293 287 284 285 285 284 281 279 279 280 283 285 287 287 288 287 285 284 286 288 290 295 300 301 296 291 287 280 272 267
280 281 282 282 283 284 286 288 290 291 292 293 294 294 294 293 292 291 291 293 295 295 295 296 298 300 301 303 305 307 307 306 305 306 306 304 303 305 305 303 301 301 302 302 300 294 289 288 288 285 283 281 281 282 283 284 284 286 289 289 286 283 284 288 291 291 291 293 294 292 288 282 277 270
281 283 285 287 289 291 293 294 294 295 296 298 299 300 299 298 297 296 295 294 294 292 292 295 298 300 302 304 307 308 308 307 306 306 305 304 304 307 307 304 302 303 304 303 303 301 297 293 291 289 285 282 281 281 281 281 282 285 287 288 287 286 286 289 288 281 279 284 290 291 288 286 283 279
287 289 291 293 294 296 297 299 300 300 300 301 303 303 303 303 303 301 300 298 293 291 293 295 296 298 300 302 302 301 300 301 302 303 305 306 306 307 307 305 302 302 304 305 305 304 301 297 295 294 292 289 287 286 285 284 284 286 288 287 285 285 286 285 280 275 276 281 285 288 289 287 285 286
290 291 292 293 295 296 297 299 300 300 302 303 302 302 303 303 303 302 303 298 294 294 293 291 292 294 295 297 297 297 298 298 299 300 303 304 304 304 305 306 305 304 306 306 307 308 307 304 301 298 296 294 293 292 290 289 290 290 289 286 283 283 282 280 276 275 276 278 280 285 287 286 287 292
285 285 286 288 290 292 295 297 297 299 301 302 301 301 300 298 298 300 298 291 290 292 291 292 294 296 297 299 299 299 299 300 300 302 303 304 305 306 306 305 304 305 307 309 309 311 310 308 305 302 299 297 296 295 292 291 292 293 292 287 284 282 281 279 278 275 273 273 274 277 281 283 286 291
283 283 284 285 286 287 290 292 294 296 298 299 299 298 296 294 297 299 293 287 288 291 293 296 298 299 299 300 300 300 300 300 300 301 302 302 304 305 305 303 303 304 305 306 308 310 311 310 309 306 303 301 297 295 296 298 299 299 296 290 284 282 281 280 278 275 272 273 274 275 277 279 281 283
286 286 286 286 287 287 287 286 287 289 290 292 293 292 291 294 298 295 286 283 285 290 294 297 298 299 299 300 301 301 302 302 301 302 302 302 302 302 301 302 302 303 302 301 301 304 306 307 307 307 307 304 299 297 299 302 301 298 292 285 281 280 281 280 277 274 273 274 276 278 278 280 281 281
290 289 289 288 288 287 287 285 284 283 283 284 285 284 287 292 292 281 275 279 282 287 293 294 294 295 298 300 300 301 302 302 302 303 303 304 304 304 303 303 302 301 301 299 298 299 300 301 303 305 306 305 302 302 301 299 295 290 286 282 279 277 278 278 277 275 274 276 278 279 280 282 283 285
290 290 290 289 288 287 286 286 286 284 282 281 280 279 282 287 283 272 268 272 277 283 289 291 291 293 295 297 298 300 300 300 300 301 302 304 304 304 305 305 304 303 303 301 299 299 299 299 301 302 302 301 301 301 298 292 287 285 284 284 282 281 280 278 276 275 275 276 279 280 280 281 281 282
288 288 288 287 287 287 286 285 285 284 283 282 281 279 277 275 272 267 265 269 275 281 286 289 291 292 293 294 295 296 297 297 297 298 299 300 301 302 303 304 305 306 306 304 302 301 300 300 300 300 300 300 300 299 296 291 289 287 287 287 287 287 285 282 279 277 275 274 275 276 278 279 278 276
287 286 286 286 286 286 285 285 284 283 282 282 283 281 277 271 267 267 269 272 277 281 283 287 290 291 293 294 294 294 294 293 294 295 297 298 300 301 302 303 305 305 305 304 303 301 302 302 303 303 302 301 299 294 291 289 289 289 289 290 289 286 283 282 281 279 277 275 272 272 274 276 275 273
286 284 282 281 281 280 282 283 284 284 283 283 283 283 281 277 273 272 274 275 277 279 281 285 287 288 290 292 293 293 294 294 293 294 295 297 300 301 301 301 302 302 302 303 303 302 302 304 305 305 304 302 299 292 286 285 285 285 286 288 289 286 282 282 282 280 277 275 272 268 268 269 269 269
288 284 281 278 277 277 278 281 284 285 285 285 284 283 281 280 280 278 276 276 277 278 281 283 285 287 288 289 290 291 292 294 293 293 293 295 297 298 299 299 299 300 301 302 303 303 303 304 305 304 302 300 298 293 286 283 283 283 283 284 285 285 284 283 283 280 277 276 275 272 270 269 268 268
296 293 290 286 284 282 282 283 283 283 282 284 285 282 277 276 277 277 276 275 277 278 280 282 284 286 286 287 288 289 289 290 290 291 292 293 294 296 297 297 297 298 299 300 302 303 304 304 305 304 300 298 296 293 287 283 283 283 284 283 283 283 283 283 282 280 279 278 276 275 275 275 272 267